Simultaneous Nadir Overpasses (SNOs) Predictions

Prediction of SNOs between AQUA and NPP Satellite Orbit:

Table of predicted SNOs for the next 14.0 days since TLE Epoch: 3/29/2025
Index Date (AQUA) Time (AQUA) Lat,Lon (AQUA) SZA (AQUA ) Date (NPP) Time (NPP) Lat,Lon (NPP) SZA (NPP ) Distance(km) Time Diff (sec)
1 03/31/2025 07:41:48 -81.29, 176.24 97.33 03/31/2025 07:41:16 -81.29, 176.33 97.32 1.57 32
2 03/31/2025 08:31:06 81.30, -16.03 82.65 03/31/2025 08:32:01 81.29, -16.19 82.64 2.66 55
3 04/02/2025 17:13:23 -81.29, 33.22 98.26 04/02/2025 17:12:18 -81.29, 33.25 98.22 0.98 65
4 04/02/2025 18:02:41 81.29,-159.07 81.73 04/02/2025 18:03:02 81.29,-158.91 81.70 2.80 21
5 04/05/2025 03:34:13 81.30, 58.31 80.77 04/05/2025 03:34:03 81.29, 58.29 80.78 0.50 10
6 04/05/2025 04:23:14 -81.55,-126.90 100.12 04/05/2025 04:24:27 -81.20,-126.32 100.40 39.59 73
7 04/07/2025 13:05:43 81.29, -84.67 79.86 04/07/2025 13:05:03 81.29, -84.59 79.88 1.35 40
8 04/07/2025 13:55:02 -81.29, 82.96 100.15 04/07/2025 13:55:47 -81.29, 83.06 100.19 1.79 45
9 04/09/2025 22:37:11 81.30, 132.78 78.91 04/09/2025 22:36:03 81.29, 132.84 78.94 1.39 68



Historial Predications of SNOs between AQUA and NPP
